Location: Red Shale Campground
(45.5700°N, 106.1600°W)
Time: 12:05:04
(UTC-06:00)

Daily predictions for brighter satellites

Satellite Brightness Start Highest point End
(mag) Time Altitude Azimuth Time Altitude Azimuth Time Altitude Azimuth
SPOT 5 3.0 21:14:45 10° SE 21:18:59 49° ENE 21:23:09 10° N
ARGOS 4.4 21:15:25 10° ESE 21:19:56 28° ENE 21:24:28 10° N
Cosmos 1666 3.1 21:16:21 10° NNW 21:20:15 68° W 21:24:07 10° S
CZ-4 SHROUD 3.7 21:17:29 10° SSE 21:20:30 46° ENE 21:23:34 10° N
Cosmos 2369 Rocket 2.9 21:17:38 10° NNW 21:23:01 42° NE 21:28:21 10° SE
Lacrosse 5 4.1 21:24:12 10° WNW 21:28:27 26° NNW 21:32:42 10° NE
Cosmos 1461 3.9 21:24:55 10° NW 21:28:58 41° WSW 21:32:50 10° S
Terra 3.9 21:28:35 10° E 21:31:10 15° ENE 21:33:45 10° NNE
MetOp-B 4.4 21:27:59 10° SSE 21:33:12 56° ENE 21:38:27 10° N
USA 186 4.4 21:32:28 10° SW 21:33:59 14° W 21:35:27 10° WNW
SL-16 R/B 3.5 21:28:49 10° SW 21:34:14 46° WNW 21:39:43 10° NNE
PSLV R/B 3.1 21:34:45 10° SSE 21:37:50 77° ENE 21:40:58 10° N
USA 81 4.4 21:37:57 10° N 21:43:05 48° E 21:48:04 11° SSE
Atlas Centaur 2 3.9 21:40:24 10° SW 21:46:17 25° S 21:52:19 11° ESE
Cosmos 1992 Rocket 4.0 21:42:52 10° NNW 21:48:08 78° ENE 21:53:01 12° SSE
Cosmos 1515 3.7 21:49:34 10° S 21:53:23 64° E 21:57:14 10° NNE
YAOGAN 6 2.8 21:51:40 13° SSE 21:54:52 60° ENE 21:58:34 10° N
Cosmos 1939 Rocket 4.0 21:53:05 10° S 21:57:03 43° W 22:01:02 10° NNW
Cosmos 1953 4.2 21:58:22 10° NNE 22:01:04 17° ENE 22:03:10 12° ESE
Lacrosse 5 rocket 3.9 21:58:58 10° WNW 22:02:12 23° NNW 22:05:34 10° NE
Meteor 1-22 Rocket 4.4 21:56:54 10° N 22:02:25 58° ENE 22:07:09 15° SSE
Cosmos 1603 4.1 21:57:47 10° SW 22:03:21 66° WNW 22:08:57 10° NNE
Cosmos 1825 Rocket 3.6 21:59:32 10° S 22:03:55 61° E 22:08:18 10° NNE
Cosmos 1066 Rocket 4.4 21:58:53 10° S 22:04:28 61° E 22:10:12 10° NNE
SeaSat 1 2.7 22:01:19 12° SSE 22:05:50 64° WSW 22:10:46 10° NNW
Tsikada Rocket 4.5 21:59:52 10° SSW 22:06:14 67° W 22:12:36 10° N
Cosmos 1812 Rocket 4.5 22:03:51 10° NNW 22:08:04 47° W 22:12:17 10° SSW
H-2A R/B 2.9 22:07:09 16° SE 22:10:36 35° ENE 22:15:11 10° N
Cosmos 1190 Rocket 4.1 22:07:17 10° S 22:12:29 59° ESE 22:17:44 10° NNE
CZ-4B R/B 3.5 22:09:45 10° NNE 22:14:52 82° ESE 22:20:05 10° SSW
SPOT 1/Viking Rocket 3.6 22:14:58 14° SSE 22:19:24 82° WSW 22:24:35 10° NNW
COSMOS 2455 3.1 22:13:24 10° SW 22:19:24 75° WNW 22:25:28 10° NNE
Cosmos 1346 Rocket 2.8 22:17:11 16° S 22:20:13 63° E 22:24:08 10° NNE
H-2A R/B 4.4 22:19:35 10° SW 22:22:39 19° W 22:25:47 10° NW
SL-8 R/B 4.1 22:18:57 10° WNW 22:23:46 65° N 22:28:35 10° E
Cosmos 1943 Rocket 2.6 22:18:31 10° NNW 22:23:55 50° ENE 22:27:40 20° SE
Cosmos 1943 3.2 22:19:58 10° SSW 22:25:38 84° ESE 22:31:23 10° NNE
Cosmos 676 Rocket 4.3 22:25:07 15° S 22:29:22 50° ESE 22:34:32 10° NNE
Cosmos 1842 3.9 22:29:51 26° SE 22:31:27 38° E 22:35:07 10° NNE
ISS -3.2 22:29:17 10° WSW 22:32:32 75° NNW 22:35:49 10° ENE
USA 245 4.5 22:28:31 13° S 22:33:41 63° WSW 22:38:38 10° NNW
SL-08 RB Rocket 3.7 22:31:29 21° SSE 22:34:33 85° WSW 22:39:06 10° NNW
IGS 5A 4.0 22:34:47 25° SE 22:36:48 44° ENE 22:40:47 10° N
Cosmos 1634 Rocket 4.4 22:33:35 10° NNW 22:39:40 62° W 22:45:06 13° S
Cosmos 2084 3.8 22:37:03 10° NNW 22:41:06 53° NE 22:43:23 25° ESE
PSLV R/B 3.9 22:38:07 10° WSW 22:41:28 39° S 22:42:06 36° SSE
ATLAS 3B R/B 2.9 22:34:14 10° SSW 22:41:56 79° SE 22:49:27 10° NE
Meteor 1-21 4.3 22:38:03 16° S 22:42:42 74° E 22:48:32 10° NNE
CZ-4 R/B 4.1 22:41:38 10° N 22:46:38 74° WNW 22:51:37 10° SSW
Lacrosse 4 Rocket 1.3 22:43:18 10° SSW 22:47:21 87° NW 22:51:29 10° NNE
Cosmos 1758 3.7 22:43:49 10° N 22:47:51 51° ENE 22:49:26 32° SE
Cosmos 1953 Rocket 4.1 22:46:45 12° SSW 22:50:42 59° W 22:55:07 10° N
Cosmos 1766 3.5 22:48:07 10° NNW 22:52:07 69° W 22:54:08 28° S
Landsat 7 3.8 22:49:43 25° S 22:52:28 79° WSW 22:57:16 10° NNW
SL-27 R/B 2.6 22:54:14 43° SE 22:54:34 44° ESE 22:57:47 10° NNE
USA 234 3.6 22:51:11 24° SSE 22:55:12 54° SW 23:01:38 10° WNW
SL-24 R/B 4.4 22:51:55 10° N 22:56:53 84° E 23:00:07 24° S
CZ-4C R/B 4.0 22:58:46 13° E 22:58:46 13° E 23:00:52 10° ENE
Spot 4 3.9 22:56:14 31° SSE 22:58:32 70° ENE 23:03:18 10° N
Cosmos 407 Rocket 3.7 22:54:02 10° SSW 22:59:17 71° WNW 23:04:31 10° NNE
Cosmos-2242 3.0 22:55:26 10° N 22:59:52 89° ENE 23:01:49 33° S
ARGOS 3.9 22:55:57 17° SSW 22:59:56 47° W 23:05:10 10° NNW
Cosmos 2279 Rocket 4.2 22:55:32 10° NNW 23:01:45 72° W 23:06:00 22° S
Cosmos 2369 Rocket 3.4 23:01:55 10° NW 23:06:55 33° WSW 23:10:29 17° SSW
Terra 1.8 23:06:00 31° S 23:08:17 78° WSW 23:13:05 10° NNW
Lacrosse 5 4.1 23:08:43 10° NW 23:12:48 24° N 23:16:52 10° ENE
Cosmos 1932 4.3 23:07:31 13° SSW 23:13:03 70° ESE 23:19:17 10° NE
Cosmos 1607 4.3 23:13:25 29° SSE 23:16:03 45° ESE 23:21:55 10° NE
CZ-4B R/B 4.0 23:17:49 12° E 23:18:50 13° ENE 23:20:33 10° NE
Cosmos 2208 Rocket 3.9 23:13:57 10° NNW 23:19:10 82° ENE 23:21:15 37° SSE
Cosmos 1954 Rocket 4.1 23:15:21 18° SSW 23:19:18 81° WNW 23:24:38 10° NNE
Cosmos 1470 3.4 23:16:14 10° N 23:19:57 41° ENE 23:20:36 37° ESE
Okean 3 Rocket 4.3 23:21:12 33° ESE 23:21:52 35° E 23:25:54 10° NNE
USA 238 DEB 3.7 23:16:02 15° SSW 23:22:00 65° ESE 23:28:59 10° NE
USA 238 3.7 23:16:15 15° SSW 23:22:06 64° ESE 23:29:05 10° NE
Cosmos 1805 3.3 23:19:22 10° NNW 23:23:19 72° W 23:24:22 46° SSW
Cosmos 1340 3.5 23:26:13 35° E 23:26:15 35° E 23:29:44 10° NNE
CARTOSAT-1 4.3 23:25:28 29° SSW 23:27:12 45° W 23:31:22 10° NNW
Atlas Centaur 2 4.0 23:28:42 10° WSW 23:34:58 25° S 23:34:58 25° S
Cosmos 1953 3.3 23:34:00 10° NNW 23:37:44 39° W 23:38:56 31° SW
Cosmos 1741 Rocket 3.9 23:37:15 37° S 23:39:24 77° ESE 23:44:45 10° NNE
Cosmos 1544 3.0 23:38:17 10° N 23:42:03 81° W 23:42:29 67° SSW
Lacrosse 5 rocket 4.3 23:39:55 10° NW 23:42:43 17° N 23:45:36 10° NE
COSMOS 2406 3.2 23:39:42 27° SSW 23:42:58 90° WNW 23:48:45 10° NNE
ALOS 2 3.8 23:44:29 27° E 23:45:40 31° ENE 23:49:33 10° N
Cosmos 1689 Rocket 4.3 23:46:18 19° ENE 23:46:19 19° ENE 23:48:43 10° NNE
H-2A R/B 3.3 23:47:46 22° SW 23:50:01 31° W 23:54:32 10° NNW
Cosmos 1842 Rocket 4.2 23:48:49 10° NNW 23:53:02 48° W 23:54:12 38° SW
BREEZE-M DEB (TANK) 4.0 23:52:08 10° WNW 23:56:10 12° ENE 23:56:30 10° ENE
